Simultaneous Nadir Overpasses (SNOs) Predictions

Prediction of SNOs between GOES-15 and NPP Satellite Orbit:

Table of predicted SNOs for the next 14.0 days since TLE Epoch: 5/24/2017
Index Date Time (GOES-15) GOES-15 Lat,Lon NPP Lat,Lon Distance(km) Time Diff (sec)
1 05/25/2017 22:33:42 -0.03,-134.74 -0.60,-137.41 303.61 80
2 05/26/2017 22:17:37 -0.04,-134.70 0.36,-132.87 208.11 80
3 05/28/2017 10:36:44 0.02,-134.56 0.85,-138.13 407.10 80
4 05/29/2017 10:20:40 0.03,-134.51 -0.18,-133.60 104.21 80
5 05/31/2017 22:23:51 -0.02,-134.45 0.02,-134.37 9.48 80
6 06/03/2017 10:24:13 0.02,-134.26 0.22,-135.09 95.23 80
7 06/04/2017 10:08:09 0.03,-134.21 -0.81,-130.56 415.72 80
8 06/05/2017 22:27:25 -0.01,-134.18 -0.37,-135.87 191.82 80
9 06/06/2017 22:11:20 -0.01,-134.13 0.60,-131.33 318.97 80




NCC Satellite Simultaneous Nadir Overpasses (SNOs) Prediction Service
